COSMOS 2016

导读 | 星芒AI

COSMOS 2016 是一颗由俄罗斯于2016年发射的军用通信卫星,搭载于“联盟-2.1b”运载火箭,主要用于军事通信和情报传输。该卫星属于俄罗斯国家安全系统的一部分,具体任务细节未公开。其发射标志着俄罗斯在增强其空间通信能力方面的持续努力。COSMOS 2016 运行在近地轨道,具有较高的机动性和隐蔽性,以确保其在复杂电磁环境下的通信稳定性。该卫星的部署反映了俄罗斯在航天和军事技术领域的持续发展。

基本信息
目录编号:
19921
目录名称:
COSMOS 2016
国际标识:
1989-028A
轨道中心:
EARTH
卫星名称:
COSMOS 2016
卫星全名:
--
卫星状态:
在轨 (已飞行13404 天)
发射日期:
1989-04-04 UTC
国别 :
俄罗斯(独联体) (CIS)
星等 :
--
轨道信息
数据来源 国际轨道数据
星历时间: 2025-12-14T15:41:14+0800
1天前
查看轨道信息
半长轴: 7358.656km
偏心率: 0.0039466
轨道倾角: 82.962°
近地点辐角 350.073°
升交点赤经 324.184°
平近点角 122.264°
近地点: 951.479km
远地点: 1009.563km
周期: 104.703分钟
每日圈数: 13.753241
详细信息
使用方式:
暂无
2D轨道图
3D轨道图
轨道高度分析图
轨道倾角分析图
轨道综合分析图
查看轨道综合分析图